Vertical_Velocity
3 2 -1 -1 -1 -2 -3 -2 -3 -4 0 -0 -1 -2 -1 1 0 1 -0 2 1 0 -0 -1 1 -0 -1 0 1 -1 -1 -1 -0
1 4 1 2 0 3 2 -2 -3 -4 -5 0 0 -1 -2 1 1 0 1 0 1 1 0 -2 2 -2 -0 -1 -2 -1 -1 -2 -2
-4 1 -0 3 -1 6 -2 4 3 -1 -0 -1 -1 1 2 -1 -1 -1 1 -0 0 2 -1 -1 2 -2 -1 -0 -3 -2 -1 -0 -0
-5 -2 1 1 1 -0 1 -0 -3 -3 -1 -2 -0 -2 -1 -1 -2 -0 1 2 -1 1 -1 0 1 -0 -0 1 -3 -3 0 1 1
-2 -4 3 -4 9 5 2 -0 3 1 2 1 -3 3 -2 -1 -2 -1 -1 1 0 -0 1 -1 -2 -0 1 2 0 -1 -1 -1 -1
-9 -4 -9 -3 -9 -2 2 -2 2 -1 4 2 -3 1 -1 -1 1 1 0 -1 -2 -1 0 0 -1 1 2 1 -0 2 1 -2 -1
-1 -6 1 -9 -15 0 4 -4 0 1 1 1 -2 -2 2 -0 -0 3 0 -1 1 -2 -1 -2 -0 0 -2 -2 1 1 -2 -0 -2
-2 -1 -5 2 -5 -7 -1 -4 4 6 1 0 3 -4 -1 3 -0 1 -2 -1 4 2 -0 -1 1 0 2 1 1 0 -3 0 -0
-3 -7 -5 -4 -2 4 11 -3 -3 1 -2 0 5 -1 -0 4 1 -1 0 -3 -1 -0 1 -1 -2 1 0 -2 4 3 -3 1 2
-1 -6 -5 0 -4 -9 -11 -6 21 -6 6 -8 -2 -1 -2 0 4 -1 2 2 -2 -3 -2 0 1 -2 0 5 1 0 3 -1 -4
3 1 -8 -1 -2 -7 -5 -5 -2 5 2 -7 -0 -3 -3 2 1 1 -4 -1 2 1 -1 4 5 3 3 1 4 0 2 -2 7
-3 0 2 2 -0 6 7 -2 8 1 -3 3 -2 -2 1 1 1 1 2 2 2 2 -1 1 2 8 9 6 -1 3 -2 -4 1
3 7 8 7 9 9 4 18 5 1 -2 -1 -7 3 9 10 -2 1 0 4 -0 0 2 1 4 4 4 2 -0 1 -6 -6 -11
5 4 -2 -4 2 3 13 6 -2 -7 1 -9 8 6 11 18 -16 5 8 4 3 7 8 3 3 2 4 -1 -3 4 7 -21 -6
3 0 2 7 2 1 1 -1 -4 1 -4 9 7 5 -4 17 -11 -19 7 6 7 15 13 1 -12 3 -6 1 -1 0 3 -15 -5
3 5 5 2 5 12 5 0 2 -6 8 1 4 -3 -7 1 3 -13 19 1 9 2 3 -11 7 1 12 16 -1 5 -7 3 8
-18 3 4 7 6 7 10 4 1 -2 8 -1 4 7 5 9 7 -1 -23 -34 10 -9 1 -4 1 -3 21 -1 3 2 -21 7 1
-3 -5 -3 -3 4 1 -3 -4 -1 -4 4 12 12 -3 0 -1 3 -2 10 -6 4 14 9 7 22 45 44 41 -3 -10 -9 3 -1
-7 -11 -11 -3 -3 3 4 5 10 -3 -0 0 -3 -2 3 4 15 16 5 -8 12 27 27 14 50 3 176 23 -9 -17 -3 9 12
-8 2 -3 -2 3 1 3 -3 -5 -9 -9 -5 -2 -7 -7 14 -0 12 15 16 -2 18 76 -30 252 -24 -85 13 -5 -16 3 8 -1
Height
5876 5879 5883 5885 5888 5889 5891 5893 5893 5895 5895 5895 5897 5899 5900 5901 5902 5903 5905 5907 5908 5908 5908 5908 5909 5908 5908 5907 5906 5904 5903 5902 5900
5869 5875 5879 5882 5884 5885 5885 5887 5890 5891 5891 5891 5893 5894 5896 5896 5897 5899 5901 5903 5905 5905 5905 5905 5906 5906 5905 5904 5904 5903 5902 5900 5898
5865 5870 5873 5877 5880 5882 5883 5887 5887 5887 5887 5889 5890 5890 5891 5891 5890 5892 5895 5897 5899 5900 5901 5902 5903 5903 5901 5902 5902 5902 5900 5898 5896
5859 5862 5867 5872 5876 5878 5881 5881 5881 5882 5883 5883 5886 5887 5887 5887 5888 5888 5889 5891 5892 5895 5897 5899 5899 5898 5898 5899 5898 5899 5898 5897 5894
5856 5857 5861 5863 5871 5874 5875 5876 5877 5879 5880 5879 5881 5882 5884 5884 5884 5885 5885 5886 5886 5889 5893 5895 5895 5894 5894 5895 5896 5895 5895 5894 5891
5849 5853 5855 5856 5857 5865 5868 5870 5872 5874 5876 5877 5877 5877 5880 5881 5880 5881 5880 5881 5881 5884 5888 5890 5891 5891 5891 5892 5892 5891 5889 5887 5886
5842 5846 5850 5850 5851 5856 5860 5863 5866 5869 5872 5872 5873 5873 5875 5877 5876 5877 5878 5877 5878 5879 5882 5885 5887 5886 5886 5887 5887 5886 5885 5884 5882
5833 5836 5841 5845 5847 5850 5853 5853 5857 5862 5865 5867 5868 5869 5871 5873 5873 5873 5873 5874 5876 5876 5878 5880 5881 5881 5882 5883 5883 5882 5881 5880 5878
5823 5827 5831 5836 5840 5842 5846 5850 5851 5855 5857 5861 5863 5864 5867 5869 5868 5868 5870 5870 5871 5872 5874 5875 5877 5878 5878 5879 5879 5878 5877 5876 5874
5813 5818 5821 5826 5829 5832 5836 5840 5845 5848 5852 5854 5856 5859 5861 5863 5864 5863 5864 5865 5865 5867 5869 5870 5872 5873 5874 5875 5874 5874 5872 5869 5869
5805 5809 5813 5818 5821 5823 5828 5834 5839 5844 5846 5846 5848 5852 5853 5856 5857 5857 5858 5858 5859 5860 5862 5864 5866 5866 5867 5867 5868 5867 5865 5863 5862
5798 5802 5806 5810 5814 5819 5824 5827 5832 5835 5837 5840 5842 5844 5844 5848 5850 5851 5851 5852 5854 5854 5855 5856 5859 5859 5859 5859 5858 5857 5857 5855 5854
5791 5794 5798 5801 5807 5811 5815 5818 5822 5825 5829 5831 5835 5837 5839 5841 5843 5843 5845 5847 5847 5848 5847 5848 5848 5848 5850 5849 5851 5848 5849 5848 5845
5783 5785 5788 5791 5795 5801 5805 5808 5811 5814 5819 5822 5827 5831 5833 5830 5830 5834 5836 5837 5838 5840 5840 5838 5837 5839 5840 5840 5840 5840 5842 5841 5837
5773 5776 5780 5784 5786 5790 5794 5797 5800 5803 5807 5814 5817 5818 5821 5822 5817 5821 5825 5827 5828 5830 5830 5829 5829 5830 5829 5831 5831 5831 5832 5831 5827
5763 5767 5771 5774 5777 5781 5783 5786 5788 5790 5797 5802 5804 5805 5807 5810 5811 5808 5815 5817 5816 5818 5819 5817 5818 5819 5819 5819 5820 5819 5821 5821 5816
5752 5755 5758 5761 5765 5768 5770 5774 5777 5780 5785 5786 5788 5792 5794 5797 5797 5798 5800 5800 5800 5805 5805 5807 5807 5805 5802 5803 5805 5807 5808 5809 5804
5742 5746 5748 5751 5752 5754 5757 5758 5760 5762 5765 5768 5773 5776 5778 5781 5785 5788 5789 5790 5791 5793 5790 5792 5790 5787 5781 5780 5788 5799 5796 5795 5792
5731 5734 5737 5738 5738 5740 5743 5745 5746 5747 5749 5751 5753 5756 5759 5762 5768 5772 5774 5778 5780 5775 5772 5774 5773 5760 5755 5764 5772 5784 5784 5783 5783
5717 5720 5723 5723 5727 5728 5729 5729 5731 5731 5732 5734 5735 5733 5736 5744 5752 5753 5756 5752 5755 5755 5739 5745 5727 5755 5758 5766 5770 5771 5773 5775 5773